GW5470 Weather Reports


time (UTC)temp
C
wind
direction
speed
KPH
gust
KPH
rain 1hr
cm
rain 24hr
cm
rain mn
cm
humidity
%
barometer
mb
20260503212435 17 182 3.2 4.8 0.00 0.00 0.00 31 1015.8
20260503211932 17 336 9.7 11.3 0.00 0.00 0.00 30 1015.7
20260503211429 17 220 1.6 1.6 0.00 0.00 0.00 34 1015.8
20260503210924 17 263 3.2 4.8 0.00 0.00 0.00 31 1015.8
20260503210422 17 244 3.2 3.2 0.00 0.00 0.00 31 1015.8
20260503205917 17 220 1.6 3.2 0.00 0.00 0.00 35 1015.8
20260503205414 17 200 4.8 6.4 0.00 0.00 0.00 34 1015.7
20260503204910 17 209 3.2 4.8 0.00 0.00 0.00 30 1015.6
20260503204408 17 191 3.2 4.8 0.00 0.00 0.00 33 1015.8
20260503203905 17 215 1.6 3.2 0.00 0.00 0.00 30 1015.7
20260503203402 17 37 1.6 3.2 0.00 0.00 0.00 30 1015.9
20260503202859 17 216 4.8 4.8 0.00 0.00 0.00 32 1016.2
20260503202357 17 225 1.6 1.6 0.00 0.00 0.00 37 1016.1
20260503201855 17 194 3.2 3.2 0.00 0.00 0.00 35 1016.0
20260503201352 17 209 3.2 3.2 0.00 0.00 0.00 37 1016.0
20260503200849 17 183 3.2 4.8 0.00 0.00 0.00 35 1016.2
20260503200345 17 232 0.0 1.6 0.00 0.00 0.00 34 1016.3
20260503195842 17 222 1.6 1.6 0.00 0.00 0.00 36 1016.5
20260503195339 17 240 1.6 1.6 0.00 0.00 0.00 31 1016.5
20260503194836 16 206 3.2 3.2 0.00 0.00 0.00 38 1016.9
20260503194332 17 348 4.8 4.8 0.00 0.00 0.00 33 1016.8
20260503193829 17 232 4.8 4.8 0.00 0.00 0.00 33 1017.1
20260503193324 17 203 3.2 3.2 0.00 0.00 0.00 33 1017.2
20260503192820 17 210 3.2 4.8 0.00 0.00 0.00 32 1017.2
20260503192316 17 200 3.2 4.8 0.00 0.00 0.00 34 1017.1
20260503191812 16 213 4.8 4.8 0.00 0.00 0.00 31 1017.1
20260503191310 16 220 6.4 6.4 0.00 0.00 0.00 33 1017.2
20260503190806 16 244 1.6 1.6 0.00 0.00 0.00 34 1017.4
20260503190303 16 192 4.8 6.4 0.00 0.00 0.00 33 1017.7
20260503185801 16 160 4.8 6.4 0.00 0.00 0.00 34 1017.6
20260503185256 16 185 4.8 4.8 0.00 0.00 0.00 34 1017.6
20260503184756 16 117 9.7 11.3 0.00 0.00 0.00 34 1017.8
20260503184252 16 118 1.6 3.2 0.00 0.00 0.00 40 1018.0
20260503183748 16 223 4.8 6.4 0.00 0.00 0.00 34 1018.0
20260503183246 16 174 6.4 6.4 0.00 0.00 0.00 34 1018.2
20260503182743 16 159 9.7 11.3 0.00 0.00 0.00 37 1018.1
20260503182242 16 153 4.8 4.8 0.00 0.00 0.00 36 1018.4
20260503181739 16 209 1.6 3.2 0.00 0.00 0.00 31 1018.3
20260503181236 16 209 3.2 4.8 0.00 0.00 0.00 36 1018.4
20260503180732 16 221 3.2 4.8 0.00 0.00 0.00 34 1018.4
20260503180231 16 146 1.6 3.2 0.00 0.00 0.00 36 1018.7
20260503175726 16 163 4.8 6.4 0.00 0.00 0.00 37 1018.5
20260503175225 16 188 3.2 4.8 0.00 0.00 0.00 39 1018.7
20260503174721 15 166 8.0 12.9 0.00 0.00 0.00 34 1018.8
20260503174219 16 71 4.8 6.4 0.00 0.00 0.00 33 1019.0
20260503173713 15 211 4.8 4.8 0.00 0.00 0.00 37 1019.0
20260503173210 16 200 4.8 6.4 0.00 0.00 0.00 37 1019.1
20260503172707 15 229 4.8 4.8 0.00 0.00 0.00 34 1019.0
20260503172204 15 215 1.6 1.6 0.00 0.00 0.00 38 1019.0
20260503171700 13 256 4.8 6.4 0.00 0.00 0.00 34 1019.1
20260503171158 13 201 4.8 4.8 0.00 0.00 0.00 36 1019.4
20260503170654 15 255 6.4 9.7 0.00 0.00 0.00 36 1019.3
20260503170151 15 25 6.4 6.4 0.00 0.00 0.00 35 1019.3
20260503160113 13 346 3.2 3.2 0.00 0.00 0.00 44 1019.9
20260503150542 12 273 3.2 3.2 0.00 0.00 0.00 42 1020.4
20260503130932 6 211 1.6 1.6 0.00 0.00 0.00 74 1020.9
20260503130430 6 204 3.2 3.2 0.00 0.00 0.00 73 1021.0
20260503110829 -2 226 0.0 0.0 0.00 0.00 0.00 98 1020.1
20260503110325 -2 225 0.0 0.0 0.00 0.00 0.00 98 1020.2
20260503100251 -2 225 0.0 0.0 0.00 0.00 0.00 98 1019.5
20260503090211 -2 225 0.0 0.0 0.00 0.00 0.00 98 1019.2
20260503081138 -2 225 0.0 0.0 0.00 0.00 0.00 98 1019.3
20260503080634 -2 225 0.0 0.0 0.00 0.00 0.00 98 1019.5
20260503080131 -2 226 0.0 0.0 0.00 0.00 0.00 98 1019.2
20260503072608 -2 226 0.0 0.0 0.00 0.00 0.00 98 1019.0
20260503072105 -2 226 0.0 0.0 0.00 0.00 0.00 98 1018.8
20260503071602 -2 225 0.0 0.0 0.00 0.00 0.00 98 1018.9
20260503071059 -2 233 0.0 0.0 0.00 0.00 0.00 98 1019.0
20260503070555 -2 225 0.0 0.0 0.00 0.00 0.00 98 1019.0
20260503055014 -1 233 0.0 0.0 0.00 0.00 0.00 97 1019.2
20260503054510 -1 233 0.0 0.0 0.00 0.00 0.00 97 1019.2
20260503054008 -1 233 0.0 0.0 0.00 0.00 0.00 97 1019.2
20260503053506 -1 233 0.0 0.0 0.00 0.00 0.00 97 1019.2
20260503053002 0 233 0.0 0.0 0.00 0.00 0.00 97 1019.1
20260503052459 0 225 0.0 0.0 0.00 0.00 0.00 97 1019.0
20260503051955 0 233 0.0 0.0 0.00 0.00 0.00 97 1019.2
20260503051451 0 233 0.0 0.0 0.00 0.00 0.00 97 1019.2
20260503050949 0 226 0.0 0.0 0.00 0.00 0.00 97 1019.3
20260503050445 0 225 0.0 0.0 0.00 0.00 0.00 97 1019.2
20260503045943 0 233 0.0 0.0 0.00 0.00 0.00 96 1019.3
20260503045440 0 233 0.0 0.0 0.00 0.00 0.00 96 1019.2
20260503044936 0 233 0.0 0.0 0.00 0.00 0.00 96 1019.3
20260503044433 0 233 0.0 0.0 0.00 0.00 0.00 96 1019.0
20260503043931 0 233 0.0 0.0 0.00 0.00 0.00 96 1019.2
20260503043427 0 233 0.0 0.0 0.00 0.00 0.00 96 1019.1
20260503042924 0 233 0.0 0.0 0.00 0.00 0.00 96 1019.0
20260503042420 0 233 0.0 0.0 0.00 0.00 0.00 96 1019.1
20260503041917 0 233 0.0 0.0 0.00 0.00 0.00 96 1019.3
20260503041414 0 226 0.0 0.0 0.00 0.00 0.00 96 1019.3
20260503040911 0 233 0.0 0.0 0.00 0.00 0.00 96 1019.0
20260503040409 0 233 0.0 0.0 0.00 0.00 0.00 95 1018.9
20260503035906 0 233 0.0 0.0 0.00 0.03 0.03 95 1019.0
20260503035402 0 233 0.0 0.0 0.00 0.03 0.03 95 1019.1
20260503034859 1 233 0.0 0.0 0.00 0.03 0.03 95 1019.1
20260503034357 1 225 0.0 0.0 0.00 0.03 0.03 95 1018.9
20260503033854 1 225 0.0 0.0 0.00 0.03 0.03 95 1018.9
20260503033352 1 230 0.0 0.0 0.00 0.03 0.03 94 1019.0
20260503032849 1 232 0.0 0.0 0.00 0.03 0.03 94 1019.2
20260503032348 1 233 0.0 0.0 0.00 0.03 0.03 94 1019.1
20260503031845 1 233 0.0 0.0 0.00 0.03 0.03 94 1019.1
20260503031343 1 233 0.0 0.0 0.00 0.03 0.03 93 1019.0
20260503030839 1 232 0.0 0.0 0.00 0.03 0.03 93 1018.9
20260503030336 2 232 0.0 0.0 0.00 0.03 0.03 93 1019.0
20260503025832 2 232 0.0 0.0 0.00 0.03 0.03 92 1018.9
20260503025330 2 232 0.0 0.0 0.00 0.03 0.03 92 1019.0
20260503024826 2 232 0.0 0.0 0.00 0.03 0.03 92 1019.0
20260503024323 2 232 0.0 0.0 0.00 0.03 0.03 91 1019.1
20260503023820 2 232 0.0 0.0 0.00 0.03 0.03 91 1019.1
20260503023318 2 232 0.0 0.0 0.00 0.03 0.03 91 1019.0
20260503022814 2 232 0.0 0.0 0.00 0.03 0.03 90 1019.0
20260503022314 2 232 0.0 0.0 0.00 0.03 0.03 90 1019.1
20260503021811 2 232 0.0 0.0 0.00 0.03 0.03 90 1018.8
20260503021307 2 232 0.0 0.0 0.00 0.03 0.03 89 1018.8
20260503020805 2 232 0.0 0.0 0.00 0.03 0.03 89 1018.8
20260503020302 2 232 0.0 0.0 0.00 0.03 0.03 88 1018.8
20260503015758 2 232 0.0 0.0 0.00 0.03 0.03 87 1018.7
20260503015255 2 232 0.0 0.0 0.00 0.03 0.03 86 1018.7
20260503014751 3 232 0.0 0.0 0.00 0.03 0.03 84 1018.5
20260503014249 3 232 0.0 0.0 0.00 0.03 0.03 83 1018.6
20260503013746 3 232 0.0 0.0 0.00 0.03 0.03 82 1018.6
20260503013244 3 232 0.0 0.0 0.00 0.03 0.03 80 1018.5
20260503012741 4 232 0.0 0.0 0.00 0.03 0.03 81 1018.4
20260503012238 4 232 0.0 0.0 0.00 0.03 0.03 79 1018.5
20260503011734 4 233 0.0 0.0 0.00 0.03 0.03 78 1018.5
20260503011232 5 232 0.0 0.0 0.00 0.03 0.03 76 1018.2
20260503010727 5 232 0.0 0.0 0.00 0.03 0.03 75 1018.3
20260503010225 5 232 0.0 0.0 0.00 0.03 0.03 74 1018.3
20260503005722 5 232 0.0 0.0 0.00 0.03 0.03 73 1018.2
20260503005219 5 225 0.0 0.0 0.00 0.03 0.03 72 1018.3
20260503004715 5 225 0.0 0.0 0.00 0.03 0.03 70 1018.1
20260503004214 6 230 0.0 0.0 0.00 0.03 0.03 68 1018.2
20260503003711 6 230 0.0 0.0 0.00 0.03 0.03 65 1018.2
20260503003208 7 230 0.0 1.6 0.00 0.03 0.03 62 1018.0
20260503002704 7 232 1.6 3.2 0.00 0.03 0.03 60 1018.1
20260503002201 7 203 3.2 4.8 0.00 0.03 0.03 60 1017.8
20260503001657 7 243 3.2 3.2 0.00 0.03 0.03 59 1018.0
20260503001154 7 225 1.6 1.6 0.00 0.03 0.03 61 1017.8
20260503000652 7 235 1.6 1.6 0.00 0.03 0.03 58 1017.6
20260503000149 7 310 4.8 4.8 0.00 0.03 0.03 57 1017.8
20260502235645 8 282 3.2 4.8 0.00 0.03 0.03 57 1017.6
20260502235144 8 344 9.7 11.3 0.00 0.03 0.03 56 1017.6
20260502234639 8 264 4.8 4.8 0.00 0.03 0.03 56 1017.8
20260502234137 8 253 3.2 4.8 0.00 0.03 0.03 54 1017.6
20260502233632 8 272 4.8 6.4 0.00 0.03 0.03 54 1017.7
20260502233129 8 312 4.8 4.8 0.00 0.03 0.03 53 1017.5
20260502232625 8 223 3.2 4.8 0.00 0.03 0.03 52 1017.5
20260502232123 9 335 4.8 6.4 0.00 0.03 0.03 52 1017.4
20260502231619 9 9 4.8 4.8 0.00 0.03 0.03 54 1017.2
20260502231118 9 143 1.6 3.2 0.00 0.03 0.03 51 1017.3
20260502230615 9 293 3.2 3.2 0.00 0.03 0.03 52 1017.3
20260502230114 9 269 3.2 3.2 0.00 0.03 0.03 52 1017.3
20260502225609 9 262 3.2 4.8 0.00 0.03 0.03 51 1017.4
20260502225106 9 265 4.8 4.8 0.00 0.03 0.03 50 1017.4
20260502224602 10 127 4.8 6.4 0.00 0.03 0.03 50 1017.3
20260502224059 10 289 4.8 6.4 0.00 0.03 0.03 50 1017.1
20260502223557 10 3 6.4 11.3 0.00 0.03 0.03 48 1017.2
20260502223055 10 237 3.2 3.2 0.00 0.03 0.03 48 1017.0
20260502222552 10 290 6.4 6.4 0.00 0.03 0.03 48 1017.0
20260502222048 10 307 6.4 6.4 0.00 0.03 0.03 46 1017.2
20260502221544 10 219 6.4 11.3 0.00 0.03 0.03 43 1017.0
20260502221042 11 340 4.8 4.8 0.00 0.03 0.03 42 1017.0
20260502220537 10 319 4.8 4.8 0.00 0.03 0.03 42 1017.1
20260502220034 10 300 6.4 9.7 0.00 0.03 0.03 42 1016.9
20260502215532 10 312 4.8 4.8 0.00 0.03 0.03 42 1016.8
20260502215028 11 222 3.2 6.4 0.00 0.03 0.03 42 1016.8
20260502214525 12 218 3.2 3.2 0.00 0.03 0.03 41 1016.7
20260502214023 12 257 0.0 1.6 0.00 0.03 0.03 43 1016.6
20260502213519 10 244 3.2 4.8 0.00 0.03 0.03 43 1016.9
20260502213018 11 12 12.9 17.7 0.00 0.03 0.03 42 1016.8